TimeAST,TemperatureF,Dew PointF,Humidity,Sea Level PressureIn,VisibilityMPH,Wind Direction,Wind SpeedMPH,Gust SpeedMPH,PrecipitationIn,Events,Conditions,WindDirDegrees,DateUTC
12:53 AM,82.0,75.0,79,29.99,10.0,ESE,6.9,-,N/A,,Clear,110,2012-10-02 04:53:00
1:53 AM,79.0,73.9,84,29.98,10.0,East,8.1,-,N/A,,Mostly Cloudy,90,2012-10-02 05:53:00
2:53 AM,81.0,75.0,82,29.96,10.0,ESE,8.1,-,N/A,,Clear,110,2012-10-02 06:53:00
3:53 AM,81.0,73.9,79,29.96,10.0,ESE,4.6,-,N/A,,Clear,110,2012-10-02 07:53:00
4:53 AM,80.1,73.9,81,29.97,10.0,East,5.8,-,N/A,,Clear,100,2012-10-02 08:53:00
5:53 AM,80.1,73.0,79,29.98,10.0,East,10.4,-,N/A,,Clear,100,2012-10-02 09:53:00
6:53 AM,81.0,75.0,82,30.01,10.0,East,8.1,-,N/A,,Clear,100,2012-10-02 10:53:00
7:53 AM,82.0,75.0,79,30.03,10.0,ESE,9.2,-,N/A,,Clear,110,2012-10-02 11:53:00
8:53 AM,86.0,73.9,67,30.04,10.0,East,13.8,18.4,N/A,,Clear,100,2012-10-02 12:53:00
9:53 AM,89.1,73.0,59,30.04,10.0,East,19.6,26.5,N/A,,Partly Cloudy,100,2012-10-02 13:53:00
10:53 AM,89.1,75.0,63,30.03,10.0,East,13.8,18.4,N/A,,Mostly Cloudy,80,2012-10-02 14:53:00
11:53 AM,90.0,75.0,61,30.01,10.0,East,13.8,21.9,N/A,,Scattered Clouds,100,2012-10-02 15:53:00
12:53 PM,91.9,72.0,52,30.00,10.0,ESE,16.1,21.9,N/A,,Scattered Clouds,110,2012-10-02 16:53:00
1:53 PM,90.0,73.0,57,29.99,10.0,ESE,11.5,-,N/A,,Mostly Cloudy,110,2012-10-02 17:53:00
2:53 PM,88.0,73.0,61,29.97,10.0,East,18.4,24.2,N/A,,Mostly Cloudy,80,2012-10-02 18:53:00
3:53 PM,89.1,73.0,59,29.97,10.0,ESE,17.3,26.5,N/A,,Clear,110,2012-10-02 19:53:00
4:53 PM,87.1,75.0,67,29.98,10.0,East,17.3,25.3,N/A,,Scattered Clouds,90,2012-10-02 20:53:00
5:53 PM,84.9,75.0,72,29.99,10.0,East,17.3,23.0,N/A,,Clear,90,2012-10-02 21:53:00
6:53 PM,84.0,73.0,69,30.00,10.0,East,16.1,23.0,N/A,,Clear,100,2012-10-02 22:53:00
7:53 PM,82.9,75.0,77,30.02,10.0,East,10.4,-,N/A,,Partly Cloudy,90,2012-10-02 23:53:00
8:53 PM,82.9,75.0,77,30.03,10.0,East,9.2,-,N/A,,Clear,90,2012-10-03 00:53:00
9:53 PM,80.1,75.9,87,30.04,10.0,East,5.8,-,N/A,,Mostly Cloudy,90,2012-10-03 01:53:00
10:53 PM,82.0,75.0,79,30.04,10.0,East,13.8,-,N/A,,Partly Cloudy,90,2012-10-03 02:53:00
11:53 PM,82.0,73.0,74,30.03,10.0,East,11.5,-,N/A,,Clear,90,2012-10-03 03:53:00